Tracking 30970 objects as of 3-Jul-2025
HD Live streaming from Space Station
objects crossing your sky now

SL-8 R/B

Track SL-8 R/B now!
10-day predictions


NORAD ID: 13003
Int'l Code: 1981-120G
Perigee: 1,659.7 km
Apogee: 1,792.5 km
Inclination: 83.0 °
Period: 120.9 minutes
Semi major axis: 8097 km
RCS: 6.3263 m2 (large)
Launch date: December 17, 1981
Source: Commonwealth of Independent States (former USSR) (CIS)
Launch site: PLESETSK MISSILE AND SPACE COMPLEX (PKMTR)

Note: This is a ROCKET BODY
Your satellite tracking list
FREGAT DEB
Track 1 satellite(s)




NASA's NSSDC Master Catalog

Two Line Element Set (TLE):
1 13003U 81120G   25183.95434668  .00000078  00000-0  94086-3 0  9998
2 13003  82.9549 135.7595 0082007 169.6257 252.5614 11.91535192893826
Source of the keplerian elements: AFSPC